CZ-12 R/B, 67068

Orbit data source: Space-Track

CZ-12 R/B, 67068 is space debris in LEO originally from a launch on Thu, 11 Dec 2025 UTC launched from the Wenchang Satellite Launch Center (WSC). Debris objects in space refer to the collection of defunct objects orbiting the Earth. Examples of debris include non-operational satellites, rocket bodies, and fragments generated from explosions, collisions, or faulty payload assembly.

Loading next visibility...
Identifier
67068, 2025-295K
Orbit
LEO
Country
Flag of CNCN / PRC
Related business
Manufacturer
SAST
Mission
Spacecraft
Bus & Motor
CZ-12 STAGE 2, YF-115
Mass
~6,000 kg wet, ~6,000 kg dry
Launch date (UTC)
2025-12-11 (6 months ago)
Launch vehicle
Unknown
Launch site
Wenchang Satellite Launch Center (WSC)
Object type
Payload
Rocket body
Debris
Shape & HBR
Cyl, 8.0 m
Radar Cross Section
35.516 m², Large (>1 m²)

Expand to show TLE details & history
Last TLE update: 1 day ago

TLE from 1 day ago
0 CZ-12 R/B
1 67068U 25295K   26170.71703086 -.00000018  00000-0  45669-4 0  9992
2 67068  49.9933 273.6723 0056803  94.1226 266.6189 14.41217669 27369
Epoch: 2026-06-19T17:12Z
TLE epoch observation values (Epoch: 2026-06-19T17:12:31.466Z)
Latitude
-0.00002°
Longitude
107.59917°
Altitude
757.63 km
Speed
7.476 km/s
True Right ascension
18h 14m 41s
True Declination
0° 00' 00"
Sunlit
Object was in full shadow at epoch
Visualization orbit readout
Latitude
Unknown
Longitude
Unknown
Altitude
Unknown
Speed
Unknown
Apparent Right ascension
Unknown
Apparent Declination
Unknown
Sunlit
N/A
Visualization observer readout
Local Sidereal Time
07:14:48
Azimuth
Unknown
Elevation
Unknown
Doppler factor
Unknown
Orbital elements
Apogee altitude
795.743 km
Perigee altitude
714.704 km
Semi-major axis
7,133.36 km
Eccentricity
0.00568
Inclination
49.9933°
RAAN
273.6723°
Arg. of periapsis
94.1226°
True anomaly
265.9694°
Mean anomaly
266.6189°
Eccentric anomaly
266.29412°
Mean motion
3.60248 °/min
Orbital period
99.93 mins
BSTAR
0.000045669
Loading maneuver chart data...
Computing Atmospheric mass density...
Loading historical data...
Loading historical data...
Loading historical data...
Loading historical data...
Loading historical data...
Loading historical data...
Loading historical data...

Documentation

Showing up to 5 results
|